User: anonymous
Location: PACMO
(41.3967°N, 90.3760°W)
Time: 10:11:02
(UTC-05:00)
Language:

BREEZE-M DEB (TANK) - Orbit

View from above orbital plane
View from above orbital plane
View from above satellite
View from above satellite

Ground track
Ground track

The orbit data is extracted from the following two-line orbital elements,

1 31863U 07032B   14205.56656967  .00000167  00000-0  12938-3 0  2628
2 31863 045.9270 187.9399 4997310 139.8985 270.5559 05.50696416141104
Epoch (UTC): 24 July 2014 13:35:51
Eccentricity: 0.4997310
inclination: 45.9270°
perigee height: 398 km
apogee height: 13936 km
right ascension of ascending node: 187.9399°
argument of perigee: 139.8985°
revolutions per day: 5.50696416
mean anomaly at epoch: 270.5559°
orbit number at epoch: 14110

The dashed part of the orbit path shows where the satellite is in the earth's shadow,  

DLR